Printer-friendly version

IAU Minor Planet Center

Minor Planet Center

MPEC 2000-P34: 2000 PK5

The following Minor Planet Electronic Circular may be linked-to from your own Web pages, but must not otherwise be redistributed electronically.


Read MPEC 2000-P33 Read MPEC 2000-P35


M.P.E.C. 2000-P34                                Issued 2000 Aug. 7, 19:35 UT

     The Minor Planet Electronic Circulars contain information on unusual
         minor planets and routine data on comets.  They are published
   on behalf of Commission 20 of the International Astronomical Union by the
          Minor Planet Center, Smithsonian Astrophysical Observatory,
                          Cambridge, MA 02138, U.S.A.

             Prepared using the Tamkin Foundation Computer Network

                              MPC@CFA.HARVARD.EDU
          URL http://cfa-www.harvard.edu/iau/mpc.html  ISSN 1523-6714

                                   2000 PK5

Observations:
     K00P05K* C2000 08 04.21453 18 41 05.88 +17 27 24.3          18.2        704
     K00P05K  C2000 08 04.22869 18 41 02.54 +17 27 36.7          18.5        704
     K00P05K  C2000 08 04.24282 18 40 59.16 +17 27 48.8          18.3        704
     K00P05K  C2000 08 04.25691 18 40 55.84 +17 28 01.9          18.3        704
     K00P05K  C2000 08 04.27103 18 40 52.49 +17 28 13.9          18.5        704
     K00P05K  C2000 08 04.96147 18 38 12.96 +17 38 16.5                      611
     K00P05K  C2000 08 04.96424 18 38 12.34 +17 38 19.1                      611
     K00P05K  C2000 08 05.02435 18 37 58.11 +17 39 10.4          16.8 R      163
     K00P05K  C2000 08 05.02543 18 37 57.90 +17 39 11.2          17.2 R      163
     K00P05K  C2000 08 05.02709 18 37 57.54 +17 39 12.2          16.9 R      163
     K00P05K cC2000 08 05.21530 18 37 14.22 +17 42 01.3                      711
     K00P05K IC2000 08 05.21916 18 37 13.31 +17 42 04.8                      711
     K00P05K cC2000 08 05.22308 18 37 12.36 +17 42 07.8                      711
     K00P05K  C2000 08 05.29014 18 36 56.54 +17 43 05.1                      670
     K00P05K  C2000 08 05.29171 18 36 56.18 +17 43 06.0                      670
     K00P05K  C2000 08 05.56839 18 35 51.55 +17 47 00.8                      402
     K00P05K  C2000 08 05.57002 18 35 51.13 +17 47 02.3                      402
     K00P05K  C2000 08 05.57162 18 35 50.77 +17 47 03.8          18.1 V      402
     K00P05K  C2000 08 05.57324 18 35 50.36 +17 47 05.5                      402
     K00P05K  C2000 08 06.26579 18 33 07.31 +17 56 45.0                      670
     K00P05K  C2000 08 06.31741 18 32 54.68 +17 57 27.4                      670
     K00P05K  C2000 08 06.54376 18 32 01.17 +18 00 52.6          18.6 R      422
     K00P05K  C2000 08 06.54519 18 32 00.71 +18 00 53.2                      422
     K00P05K  C2000 08 06.54622 18 32 00.44 +18 00 52.8                      422
     K00P05K  C2000 08 06.85797 18 30 46.65 +18 04 41.5                      118
     K00P05K  C2000 08 06.85905 18 30 46.32 +18 04 42.2                      118
     K00P05K  C2000 08 06.86115 18 30 45.91 +18 04 43.5                      118
     K00P05K  C2000 08 07.12398 18 29 43.20 +18 08 18.9          17.5 V      739
     K00P05K  C2000 08 07.12887 18 29 42.15 +18 08 21.0          17.8 V      739
     K00P05K  C2000 08 07.13225 18 29 41.17 +18 08 23.9          17.6 V      739
     K00P05K  C2000 08 07.13730 18 29 39.99 +18 08 29.9          17.8 V      739
     K00P05K  C2000 08 07.22300 18 29 19.42 +18 09 37.9                      670
     K00P05K  C2000 08 07.22457 18 29 18.94 +18 09 38.4                      670

Observer details:
118 Modra.  Observers A. Galad, J. Toth.  0.6-m f/5.5 reflector + CCD.
163 Roeser Observatory, Luxembourg.  Observer M. Dawson.  0.457-m f/4.5
    reflector + CCD.
402 Dynic Astronomical Observatory.  Observer A. Sugie.  0.60-m f/3.7 reflector
    + CCD.
422 Loomberah.  Observer G. J. Garradd.  0.45-m f/5.4 reflector + CCD.
611 Starkenburg.  Observers S. Kluegl, M. Busch, R. Stoss.  0.45-m f/4.4
    reflector + CCD.
670 Camarillo.  Observer J. E. Rogers.  0.30-m f/6.7 Helin Telescope + CCD.
704 Lincoln Laboratory ETS, New Mexico.  Observers M. Blythe, F. Shelly,
    M. Bezpalko, M. Elowitz, R. Huber, L. Manguso.  Measurers J. Stuart,
    R. Sayer, J. B. Evans, H. Viggh.  1.0-m f/2.15 reflector + CCD.
711 McDonald Observatory.  Observers P. J. Shelus, J. G. Ries.  0.76-m
    reflector + CCD.
739 Sunflower Observatory, Olathe.  Observer L. Robinson.  0.25-m
    Schmidt-Cassegrain + CCD.

Orbital elements:
2000 PK5
Epoch 2000 Aug. 4.0 TT = JDT 2451760.5                  Hergenrother
M 331.68576              (2000.0)            P               Q
n   0.35791880     Peri.  191.38428     +0.52011443     -0.83716516
a   1.9646252      Node   227.53591     +0.80052719     +0.54689175
e   0.7078738      Incl.   13.26109     +0.29772001     -0.00799420
P   2.75           H   17.2           G   0.15
From 33 observations 2000 Aug. 4-7.

Ephemeris:
2000 PK5                 a,e,i = 1.96, 0.71, 13                  q = 0.5739
Date    TT    R. A. (2000) Decl.     Delta      r     Elong.  Phase     V
2000 08 04    18 41.92   +17 24.3    0.476    1.379   131.9    33.2    17.7
2000 08 14    18 01.11   +19 24.6    0.423    1.265   117.4    45.3    17.6
2000 08 24    17 16.38   +20 19.5    0.384    1.146   100.7    60.1    17.6
2000 09 03    16 28.18   +20 09.8    0.353    1.024    82.5    77.5    17.7
2000 09 13    15 32.89   +18 54.9    0.328    0.902    62.3    99.0    18.1
2000 09 23    14 24.81   +15 56.4    0.317    0.782    38.9   126.3    19.5

2000 11 12    12 15.94   -11 37.1    0.919    0.693    42.4    74.3    18.8
2000 11 22    12 37.82   -14 58.1    1.052    0.803    46.2    62.7    19.1
2000 12 02    12 59.64   -17 44.6    1.156    0.923    50.3    55.3    19.4
2000 12 12    13 19.86   -20 02.6    1.231    1.046    55.0    50.4    19.6
2000 12 22    13 37.88   -21 57.1    1.282    1.167    60.3    47.1    19.9
2001 01 01    13 53.31   -23 31.3    1.309    1.285    66.5    44.5    20.0
2001 01 11    14 05.83   -24 47.2    1.316    1.399    73.3    42.3    20.2
2001 01 21    14 15.07   -25 45.9    1.307    1.508    81.0    40.1    20.3
2001 01 31    14 20.55   -26 26.7    1.284    1.613    89.6    37.7    20.3
2001 02 10    14 21.78   -26 47.4    1.253    1.713    99.1    34.7    20.3
2001 02 20    14 18.36   -26 44.4    1.218    1.809   109.7    31.0    20.2
2001 03 02    14 10.07   -26 12.1    1.186    1.901   121.4    26.4    20.2
2001 03 12    13 57.30   -25 05.0    1.165    1.988   134.1    21.0    20.1
2001 03 22    13 41.17   -23 21.1    1.162    2.072   147.4    15.0    19.9
2001 04 01    13 23.53   -21 04.9    1.185    2.153   160.5     8.9    19.8
2001 04 11    13 06.57   -18 29.9    1.237    2.229   169.4     4.8    19.8
2001 04 21    12 52.03   -15 53.9    1.320    2.303   164.1     6.9    20.1
2001 05 01    12 40.96   -13 32.5    1.432    2.373   152.8    11.2    20.5
2001 05 11    12 33.64   -11 35.5    1.569    2.440   141.4    15.0    20.9
2001 05 21    12 29.84   -10 06.2    1.726    2.505   130.5    17.9    21.3
2001 05 31    12 29.10   -09 03.8    1.898    2.566   120.5    19.9    21.6
2001 06 10    12 30.92   -08 25.2    2.081    2.625   111.2    21.1    21.9
2001 06 20    12 34.81   -08 06.8    2.271    2.681   102.4    21.7    22.2
2001 06 30    12 40.40   -08 05.1    2.465    2.734    94.2    21.8    22.4

Carl W. Hergenrother         (C) Copyright 2000 MPC           M.P.E.C. 2000-P34

Read MPEC 2000-P33 Read MPEC 2000-P35


Our Web policy. Index to the CBAT/MPC/ICQ pages.


Valid HTML 4.01!